When you browse on this site, cookies collect data to enhance your experience and personalize the content and advertising you see.
Visit our Privacy Policy to learn more. By continuing to use the site, you agree to this use of cookies and data.
  • In Latvia
  • List of Countries
  • For 7 days
  • Water Temperature
  • Satellite Maps
  • Weather Map
  • Weather Widgets
  • user-avatar
    Login

    Hourly Weather Barnsley

    Today, 19 January, Saturday

    Time Temperature Precipitation Wind Pressure Humidity
    00:00 0°C° 0 mm 5 mps 746 mmHg 86%
    01:00 0°C° 0.3 mm 5 mps 746 mmHg 87%
    02:00 0°C° 0.3 mm 5 mps 746 mmHg 87%
    03:00 0°C° 0.3 mm 5 mps 746 mmHg 88%
    04:00 0°C° 0.1 mm 4 mps 746 mmHg 88%
    05:00 0°C° 0.1 mm 4 mps 745 mmHg 89%
    06:00 0°C° 0 mm 4 mps 745 mmHg 90%
    07:00 0°C° 0 mm 4 mps 745 mmHg 89%
    08:00 0°C° 0 mm 4 mps 745 mmHg 89%
    09:00 0°C° 0 mm 4 mps 745 mmHg 89%
    10:00 0°C° 0 mm 4 mps 745 mmHg 89%
    11:00 +1°C° 0 mm 3 mps 746 mmHg 88%
    12:00 +1°C° 0 mm 3 mps 746 mmHg 87%
    13:00 +2°C° 0 mm 3 mps 746 mmHg 88%
    14:00 +2°C° 0 mm 3 mps 745 mmHg 88%
    15:00 +2°C° 0 mm 3 mps 745 mmHg 88%
    16:00 +3°C° 0.1 mm 2 mps 746 mmHg 89%
    17:00 +2°C° 0.1 mm 2 mps 746 mmHg 90%
    18:00 +2°C° 0.1 mm 2 mps 746 mmHg 90%
    19:00 +2°C° 0.1 mm 2 mps 746 mmHg 90%
    20:00 +2°C° 0.1 mm 2 mps 747 mmHg 90%
    21:00 +2°C° 0.1 mm 2 mps 747 mmHg 90%
    22:00 +1°C° 0 mm 2 mps 747 mmHg 90%
    23:00 +2°C° 0 mm 1 mps 748 mmHg 91%

    Tomorrow, 20 January, Sunday

    Time Temperature Precipitation Wind Pressure Humidity
    00:00 +2°C° 0 mm 1 mps 748 mmHg 91%
    01:00 +2°C° 0 mm 1 mps 749 mmHg 91%
    02:00 +2°C° 0 mm 1 mps 749 mmHg 91%
    03:00 +1°C° 0 mm 1 mps 749 mmHg 92%
    04:00 +1°C° 0 mm 1 mps 749 mmHg 92%
    05:00 0°C° 0 mm 0 mps 750 mmHg 92%
    06:00 0°C° 0 mm 0 mps 750 mmHg 91%
    07:00 0°C° 0 mm 0 mps 751 mmHg 91%
    08:00 0°C° 0 mm 0 mps 752 mmHg 90%
    09:00 +1°C° 0 mm 0 mps 752 mmHg 90%
    10:00 +1°C° 0 mm 0 mps 753 mmHg 87%
    11:00 +2°C° 0 mm 0 mps 753 mmHg 85%
    12:00 +4°C° 0 mm 1 mps 753 mmHg 82%
    13:00 +4°C° 0 mm 1 mps 754 mmHg 84%
    14:00 +5°C° 0 mm 1 mps 754 mmHg 85%
    15:00 +5°C° 0 mm 1 mps 754 mmHg 87%
    16:00 +4°C° 0 mm 1 mps 755 mmHg 88%
    17:00 +3°C° 0 mm 1 mps 755 mmHg 90%
    18:00 +3°C° 0 mm 1 mps 756 mmHg 92%
    19:00 +3°C° 0 mm 1 mps 756 mmHg 92%
    20:00 +2°C° 0 mm 2 mps 756 mmHg 91%
    21:00 +2°C° 0 mm 2 mps 757 mmHg 91%
    22:00 +2°C° 0 mm 2 mps 757 mmHg 92%
    23:00 +2°C° 0 mm 2 mps 757 mmHg 92%

    Day after tomorrow, 21 January, Monday

    Time Temperature Precipitation Wind Pressure Humidity
    00:00 +3°C° 0 mm 2 mps 758 mmHg 93%
    01:00 +2°C° 0 mm 2 mps 758 mmHg 91%
    02:00 +2°C° 0 mm 2 mps 758 mmHg 90%
    03:00 +3°C° 0 mm 1 mps 758 mmHg 89%
    04:00 +3°C° 0 mm 1 mps 757 mmHg 89%
    05:00 +3°C° 0 mm 1 mps 757 mmHg 88%
    06:00 +2°C° 0 mm 0 mps 757 mmHg 88%
    07:00 +3°C° 0 mm 1 mps 757 mmHg 88%
    08:00 +3°C° 0 mm 1 mps 756 mmHg 88%
    09:00 +3°C° 0 mm 1 mps 756 mmHg 89%
    10:00 +3°C° 0 mm 2 mps 756 mmHg 88%
    11:00 +3°C° 0 mm 2 mps 755 mmHg 87%
    12:00 +3°C° 0 mm 3 mps 754 mmHg 86%
    13:00 +3°C° 0 mm 4 mps 753 mmHg 86%
    14:00 +1°C° 0 mm 4 mps 752 mmHg 87%
    15:00 +1°C° 0 mm 5 mps 750 mmHg 87%
    16:00 +1°C° 0 mm 5 mps 749 mmHg 87%
    17:00 +1°C° 0 mm 5 mps 748 mmHg 86%
    18:00 +1°C° 0 mm 5 mps 747 mmHg 86%
    19:00 +2°C° 0.1 mm 6 mps 746 mmHg 86%
    20:00 +2°C° 0.1 mm 7 mps 744 mmHg 86%
    21:00 +2°C° 0.1 mm 7 mps 742 mmHg 86%
    22:00 +1°C° 1 mm 8 mps 741 mmHg 86%
    23:00 +1°C° 1 mm 9 mps 739 mmHg 85%

    22 January, Tuesday

    Time Temperature Precipitation Wind Pressure Humidity
    00:00 +2°C° 1 mm 9 mps 738 mmHg 85%
    01:00 +1°C° 1.2 mm 8 mps 737 mmHg 81%
    02:00 0°C° 1.2 mm 7 mps 737 mmHg 78%
    03:00 +1°C° 1.2 mm 5 mps 737 mmHg 74%
    04:00 0°C° 0 mm 5 mps 736 mmHg 73%
    05:00 0°C° 0 mm 4 mps 736 mmHg 73%
    06:00 -1°C° 0 mm 4 mps 736 mmHg 72%
    07:00 -1°C° 0 mm 4 mps 736 mmHg 72%
    08:00 -1°C° 0 mm 5 mps 736 mmHg 72%
    09:00 -1°C° 0 mm 5 mps 737 mmHg 72%
    10:00 -1°C° 0 mm 6 mps 737 mmHg 70%
    11:00 +1°C° 0 mm 6 mps 737 mmHg 69%
    12:00 0°C° 0 mm 7 mps 737 mmHg 68%
    13:00 +1°C° 0 mm 6 mps 737 mmHg 68%
    14:00 +1°C° 0 mm 5 mps 738 mmHg 69%
    15:00 +2°C° 0 mm 3 mps 738 mmHg 70%
    16:00 +1°C° 0 mm 3 mps 738 mmHg 72%
    17:00 +1°C° 0 mm 3 mps 739 mmHg 74%
    18:00 0°C° 0 mm 3 mps 739 mmHg 76%
    19:00 0°C° 0 mm 3 mps 740 mmHg 76%
    20:00 0°C° 0 mm 3 mps 741 mmHg 76%
    21:00 0°C° 0 mm 3 mps 741 mmHg 75%
    22:00 0°C° 0 mm 3 mps 741 mmHg 76%
    23:00 -1°C° 0 mm 3 mps 742 mmHg 77%

    23 January, Wednesday

    Time Temperature Precipitation Wind Pressure Humidity
    00:00 -1°C° 0 mm 2 mps 742 mmHg 78%
    01:00 -1°C° 0 mm 2 mps 742 mmHg 78%
    02:00 -1°C° 0 mm 2 mps 743 mmHg 79%
    03:00 -1°C° 0 mm 2 mps 743 mmHg 79%
    04:00 -1°C° 0 mm 2 mps 744 mmHg 79%
    05:00 -1°C° 0 mm 2 mps 744 mmHg 79%
    06:00 -1°C° 0 mm 2 mps 744 mmHg 79%
    07:00 -1°C° 0 mm 2 mps 745 mmHg 79%
    08:00 -1°C° 0 mm 2 mps 746 mmHg 78%
    09:00 -1°C° 0 mm 2 mps 746 mmHg 78%
    10:00 +2°C° 0 mm 2 mps 747 mmHg 75%
    11:00 +3°C° 0 mm 2 mps 747 mmHg 72%
    12:00 +3°C° 0 mm 3 mps 747 mmHg 69%
    13:00 +3°C° 0 mm 3 mps 748 mmHg 71%
    14:00 +4°C° 0 mm 2 mps 748 mmHg 73%
    15:00 +4°C° 0 mm 2 mps 748 mmHg 74%
    16:00 +3°C° 0 mm 2 mps 748 mmHg 78%
    17:00 +2°C° 0 mm 3 mps 749 mmHg 82%
    18:00 +1°C° 0 mm 3 mps 749 mmHg 86%
    19:00 +1°C° 0 mm 3 mps 749 mmHg 86%
    20:00 +1°C° 0 mm 3 mps 750 mmHg 87%
    21:00 +1°C° 0 mm 3 mps 750 mmHg 87%
    22:00 +1°C° 0 mm 3 mps 750 mmHg 88%
    23:00 +1°C° 0 mm 3 mps 751 mmHg 88%

    24 January, Thursday

    Time Temperature Precipitation Wind Pressure Humidity
    00:00 +1°C° 0 mm 3 mps 751 mmHg 88%
    01:00 +1°C° 0 mm 3 mps 751 mmHg 90%
    02:00 +1°C° 0 mm 3 mps 751 mmHg 92%
    03:00 +1°C° 0 mm 2 mps 752 mmHg 93%
    04:00 +1°C° 0 mm 2 mps 752 mmHg 94%
    05:00 +1°C° 0 mm 2 mps 752 mmHg 95%
    06:00 +2°C° 0 mm 1 mps 752 mmHg 96%
    07:00 +1°C° 0 mm 1 mps 753 mmHg 95%
    08:00 +1°C° 0 mm 1 mps 753 mmHg 94%
    09:00 +1°C° 0 mm 1 mps 753 mmHg 93%
    10:00 +2°C° 0 mm 1 mps 754 mmHg 88%
    11:00 +3°C° 0 mm 1 mps 754 mmHg 84%
    12:00 +4°C° 0 mm 1 mps 754 mmHg 79%
    13:00 +4°C° 0 mm 1 mps 754 mmHg 80%
    14:00 +4°C° 0 mm 1 mps 754 mmHg 81%
    15:00 +3°C° 0 mm 2 mps 754 mmHg 82%
    16:00 +2°C° 0 mm 2 mps 754 mmHg 85%
    17:00 +2°C° 0 mm 2 mps 755 mmHg 88%
    18:00 +1°C° 0 mm 2 mps 755 mmHg 91%
    19:00 +1°C° 0 mm 2 mps 756 mmHg 90%
    20:00 +1°C° 0 mm 2 mps 756 mmHg 90%
    21:00 +1°C° 0 mm 2 mps 757 mmHg 90%
    22:00 -1°C° 0 mm 2 mps 757 mmHg 90%
    23:00 -1°C° 0 mm 2 mps 757 mmHg 89%
    Show more